Regional Weather Roundup
Issued by NWS

Home | Current Version | Previous Version | Text Only | Print | Product List | Glossary Off
Versions: 1 2 3 4 5 6 7 8 9 10 11 12 13 14 15 16 17 18 19 20 21 22 23 24 25 26 27 28 29 30 31 32 33 34 35 36 37 38 39 40 41 42 43 44 45 46 47 48 49 50

000
ASUS43 KFSD 241202
RWRSD

WEATHER ROUNDUP FOR SOUTH DAKOTA
NATIONAL WEATHER SERVICE SIOUX FALLS SD
700 AM CDT FRI OCT 24 2014

NOTE: "FAIR" INDICATES FEW OR NO CLOUDS BELOW 12,000 FEET WITH NO
SIGNIFICANT WEATHER AND/OR OBSTRUCTIONS TO VISIBILITY.


SDZ001>005-009-010-012>017-241300-
NORTHWEST AND NORTH CENTRAL SOUTH DAKOTA

CITY           SKY/WX    TMP DP  RH WIND       PRES   REMARKS
FAITH            N/A     49  29  46 W6        29.89R
MOBRIDGE       CLOUDY    43  37  79 SE5       29.84R
$$

SDZ012>016-024>037-041>051-057-063-072>074-241300-
SOUTHWEST AND SOUTH CENTRAL SOUTH DAKOTA

CITY           SKY/WX    TMP DP  RH WIND       PRES   REMARKS
RAPID CTY ARPT CLOUDY    44  32  62 CALM      29.91S
PIERRE         CLOUDY    40  34  79 W6        29.86S
CUSTER         CLOUDY    48  25  40 W6        30.03R
ELLSWORTH AFB  CLOUDY    46  33  61 NW9       29.91R
PHILIP         MOCLDY    39  32  76 W8        29.89S
PINE RIDGE     CLOUDY    44  35  70 W6        29.95R
SPEARFISH      FAIR      46  32  57 W8        29.95R
WINNER         FAIR      52  33  48 SW7       29.89R
$$

SDZ004>011-016>023-039-040-241300-
NORTHEAST SOUTH DAKOTA

CITY           SKY/WX    TMP DP  RH WIND       PRES   REMARKS
ABERDEEN       CLOUDY    37  35  92 SW5       29.85R
WATERTOWN      MOCLDY    42  41  96 CALM      29.84R
SISSETON         N/A     39  38  96 SW3       29.81S
$$

SDZ017-020-022-023-036>040-048>070-241300-
SOUTHEAST SOUTH DAKOTA

CITY           SKY/WX    TMP DP  RH WIND       PRES   REMARKS
SIOUX FALLS    MOCLDY    52  50  93 SW6       29.85R FOG
HURON          CLOUDY    38  36  92 NW3       29.84S
CHAMBERLAIN    CLOUDY    45  36  71 W7        29.88R
MITCHELL       CLOUDY    46  40  79 W7        29.86S
YANKTON        MOCLDY    55  52  88 SW7       29.86R
$$

ABBREVIATIONS USED IN REMARKS
   TC - TEMPERATURE IN CELSIUS
  WCI - WIND CHILL INDEX
   HX - HEAT INDEX
  VSB - VISIBILITY




USA.gov is the U.S. government's official web portal to all federal, state and local government web resources and services.